Regional Weather Roundup
Issued by NWS

Home | Current Version | Previous Version | Text Only | Print | Product List | Glossary On
Versions: 1 2 3 4 5 6 7 8 9 10 11 12 13 14 15 16 17 18 19 20 21 22 23 24 25 26 27 28 29 30 31 32 33 34 35 36 37 38 39 40 41 42 43 44 45 46 47 48 49 50
000
ASUS45 KABQ 301810
RWRNM
NEW MEXICO REGIONAL WEATHER ROUNDUP
NATIONAL WEATHER SERVICE ALBUQUERQUE NM
1200 PM MDT TUE AUG 30 2016

NOTE: "FAIR" MEANS FEW OR NO CLOUDS BELOW 12,000 FEET AGL WITH NO
       SIGNIFICANT WEATHER OR OBSTRUCTIONS TO VISION.

      THIS PRODUCT IS RELEASED AS TWO VERSIONS.  ONE VERSION NEAR
      THE TOP OF THE HOUR CONTAINING PRELIMINARY DATA FROM ALBUQUERQUE
      AND OTHER STATIONS.  A FINAL VERSION WITH ADDITIONAL DATA IS
      ISSUED ABOUT 10 MINUTES AFTER THE HOUR.

NMZ501-503-504-510>518-301900-
NORTHWEST PLATEAU/NORTHCENTRAL MOUNTAINS

CITY           SKY/WX    TMP DP  RH WIND       PRES   REMARKS
FARMINGTON     FAIR      75  44  33 SE10      30.31F
6HR MIN TEMP:  58; 6HR MAX TEMP:  75;

SANTA FE       FAIR      72  45  37 VRB5      30.38F
6HR MIN TEMP:  48; 6HR MAX TEMP:  72;

TAOS           FAIR      68  43  40 SE3       30.43F
ANGEL FIRE     CLOUDY    60  46  60 CALM      30.51F

$$
NMZ402-403-502-505>509-301900-
WESTCENTRAL MOUNTAINS/SOUTHWEST MOUNTAINS

CITY           SKY/WX    TMP DP  RH WIND       PRES   REMARKS
GALLUP         CLOUDY    71  47  42 NW8       30.35F
6HR MIN TEMP:  46; 6HR MAX TEMP:  71;

GRANTS         FAIR      71  47  41 SE8G17    30.40F
SILVER CITY    PTSUNNY   74  53  47 SW5       30.29S

$$
NMZ407-409-411-412-301900-
SOUTHERN DESERTS

CITY           SKY/WX    TMP DP  RH WIND       PRES   REMARKS
DEMING         FAIR      80  55  42 NE10      30.22F
6HR MIN TEMP:  62; 6HR MAX TEMP:  80;

LAS CRUCES     FAIR      76  54  45 NE5       30.25F
HOLLOMAN AFB   PTSUNNY   76  56  48 VRB5      30.21F
ALAMOGORDO     PTSUNNY   73  57  56 SE5       30.24S
T OR C         FAIR      78  52  40 N10G20    30.26F
6HR MIN TEMP:  63; 6HR MAX TEMP:  78;


$$
NMZ519>523-301900-
CENTRAL VALLEYS/CENTRAL HIGHLANDS

CITY           SKY/WX    TMP DP  RH WIND       PRES   REMARKS
ALBUQUERQUE    FAIR      77  49  37 E9G18     30.33F
6HR MIN TEMP:  60; 6HR MAX TEMP:  77;

DOUBLE EAGLE   MOSUNNY   73  50  43 VRB7      30.37F
MORIARTY ARPT  PTSUNNY   69  51  52 NE5       30.40F
6HR MIN TEMP:  51; 6HR MAX TEMP:  69;

CLINES CORNERS CLOUDY    61  51  70 E15       30.44
6HR MIN TEMP:  50; 6HR MAX TEMP:  61;

BELEN          FAIR      76  47  36 NE7       30.32F
6HR MIN TEMP:  54; 6HR MAX TEMP:  76;

SOCORRO        FAIR      77  51  40 N3        30.28F
6HR MIN TEMP:  60; 6HR MAX TEMP:  78;


$$
NMZ524>526-539-540-301900-
SOUTHCENTRAL MOUNTAINS

CITY           SKY/WX    TMP DP  RH WIND       PRES   REMARKS
RUIDOSO          N/A     61  54  77 SE9       30.42S

$$
NMZ527>531-301900-
NORTHEAST HIGHLANDS/NORTHEAST PLAINS

CITY           SKY/WX    TMP DP  RH WIND       PRES   REMARKS
LAS VEGAS      FAIR      65  52  62 E9        30.43F
6HR MIN TEMP:  47; 6HR MAX TEMP:  66;

RATON          PTSUNNY   71  48  43 CALM      30.38F
6HR MIN TEMP:  49; 6HR MAX TEMP:  72;

CLAYTON        LGT RAIN  66  59  78 CALM      30.35F
6HR MIN TEMP:  58; 6HR MAX TEMP:  67; 6HR PCP: TRACE;


$$
NMZ532>537-301900-
EASTCENTRAL PLAINS

CITY           SKY/WX    TMP DP  RH WIND       PRES   REMARKS
TUCUMCARI      PTSUNNY   71  63  75 NE8       30.28F
6HR MIN TEMP:  64; 6HR MAX TEMP:  72; 6HR PCP:  0.02;

CANNON AFB     LGT RAIN  67  67 100 E8        30.29F
6HR MIN TEMP:  63; 6HR MAX TEMP:  67; 6HR PCP:  0.16;

CLOVIS AIRPORT CLOUDY    66  63  88 E8        30.29F

$$
NMZ028-029-538-301900-
SOUTHEAST PLAINS

CITY           SKY/WX    TMP DP  RH WIND       PRES   REMARKS
ROSWELL        CLOUDY    70  65  84 NE8       30.25S
6HR MIN TEMP:  66; 6HR MAX TEMP:  71; 6HR PCP:  0.26;

ARTESIA        CLOUDY    70  70 100 NE10      30.24S
CARLSBAD       LGT RAIN  67  65  93 N10       30.21S
6HR MIN TEMP:  65; 6HR MAX TEMP:  68; 6HR PCP:  0.47;

HOBBS          PTSUNNY   73  73 100 E10       30.23F


$$




USA.gov is the U.S. government's official web portal to all federal, state and local government web resources and services.